This demonstration page uses our WeatherBlox Daily Observations layout. Learn more.

Left ArrowRight Arrow

36.17497, -115.13722

Hourly Observations for September 22, 2020

Temp ( °F °C ) Dew Point ( °F °C ) Humidity (%) Winds ( mph kmh ) Pressure ( in mb ) Visibility ( mi km ) Precip ( " mm )
12:53 am 00:53 Clear 81 27.2 45 7.2 28 28 WNW 3 6 29.87 1011 10 16 N/A
1:53 am 01:53 Clear 80 26.7 45 7.2 29 29 W 5 7 29.87 1012 10 16 N/A
2:53 am 02:53 Clear 77 25 44 6.7 31 31 WNW 5 7 29.88 1012 10 16 N/A
3:53 am 03:53 Clear 77 25 46 7.8 33 33 W 6 9 29.89 1012 10 16 N/A
4:53 am 04:53 Clear 75 23.9 44 6.7 33 33 WNW 6 9 29.91 1013 10 16 N/A
5:53 am 05:53 Clear 74 23.3 43 6.1 33 33 NW 8 13 29.92 1013 10 16 N/A
6:53 am 06:53 Sunny 75 23.9 42 5.6 31 31 NW 3 6 29.94 1014 10 16 N/A
7:53 am 07:53 Sunny 78 25.6 42 5.6 28 28 NW 3 6 29.95 1014 10 16 N/A
8:53 am 08:53 Sunny 83 28.3 43 6.1 24 24 N N/A 29.96 1015 10 16 N/A
9:53 am 09:53 Sunny 87 30.6 42 5.6 21 21 N N/A 29.96 1015 10 16 N/A
10:53 am 10:53 Sunny 91 32.8 40 4.4 17 17 N N/A 29.95 1014 10 16 N/A
11:53 am 11:53 Sunny 96 35.6 38 3.3 13 13 SE 10 17 29.93 1014 10 16 N/A
12:53 pm 12:53 Sunny 98 36.7 36 2.2 11 11 VRB 3 6 29.90 1013 10 16 N/A
1:53 pm 13:53 Sunny 99 37.2 33 0.6 10 10 S 17 28 29.88 1012 10 16 N/A
2:53 pm 14:53 Sunny 99 37.2 31 -0.6 9 9 VRB 6 9 29.87 1012 10 16 N/A
3:53 pm 15:53 Sunny 99 37.2 33 0.6 10 10 SW 16 26 29.85 1011 10 16 N/A
4:53 pm 16:53 Sunny 99 37.2 30 -1.1 9 9 SSW 18 30 29.85 1011 10 16 N/A
5:53 pm 17:53 Sunny 97 36.1 28 -2.2 9 9 SW 14 22 29.86 1011 10 16 N/A
6:53 pm 18:53 Clear 95 35 28 -2.2 9 9 SW 12 19 29.86 1011 10 16 N/A
7:53 pm 19:53 Clear 92 33.3 29 -1.7 10 10 SSW 9 15 29.88 1012 10 16 N/A
8:53 pm 20:53 Clear 90 32.2 29 -1.7 11 11 S 8 13 29.90 1012 10 16 N/A
9:53 pm 21:53 Clear 87 30.6 31 -0.6 13 13 SW 6 9 29.91 1013 10 16 N/A
10:53 pm 22:53 Clear 84 28.9 31 -0.6 15 15 WNW 3 6 29.92 1013 10 16 N/A
11:53 pm 23:53 Clear 81 27.2 32 undefined 17 17 W 3 6 29.93 1014 10 16 N/A

Powered by AerisWeather